Orbital Elements at Epoch 2459200.5 (2020-Dec-17.0) TDB
Reference: JPL 20 (heliocentric ecliptic J2000)
Element | Value | Uncertainty (1-sigma) | Units |
e | .04996749098898719 | 4.3521e-08 | |
a | 2.779620997177779 | 1.8809e-08 | au |
q | 2.640730310048498 | 1.2246e-07 | au |
i | 5.568731543595509 | 4.0965e-06 | deg |
node | 132.1308022440271 | 4.7301e-05 | deg |
peri | 62.86398026221003 | 6.6601e-05 | deg |
M | 214.573485387827 | 4.9776e-05 | deg |
tp | 2459884.282367000990 (2022-Oct-31.78236700) | 0.00023812 | TDB |
period | 1692.687559602361 4.63 | 1.7181e-05 4.704e-08 | d yr |
n | .2126795331824673 | 2.1587e-09 | deg/d |
Q | 2.918511684307059 | 1.9749e-08 | au |
|
| | Orbit Determination Parameters
Additional Information
|